Dewpoint
51 51 51 50 49 48 47 47 46 46 46 45 45 45 44 44 43 38 36 35 35 40 46 43 45 54 49 45 45 44 37 29 26 25 27 32 31 29 27 22 22 26 31 42 49
52 51 51 51 50 49 47 47 46 46 46 45 45 45 44 44 40 34 34 50 52 53 51 42 43 49 48 44 43 41 36 33 30 28 27 31 32 29 27 20 23 27 42 48 50
53 53 52 51 51 50 48 48 47 47 47 46 45 45 44 43 33 34 46 44 46 48 50 44 44 45 46 47 41 40 38 38 35 32 32 31 31 31 26 26 27 27 45 49 49
55 55 54 52 51 51 50 48 48 47 47 46 45 45 44 40 25 46 46 39 40 45 45 41 40 41 43 43 46 38 38 39 39 38 37 32 31 33 31 29 32 31 45 49 49
56 56 56 54 52 51 50 48 48 48 47 46 45 44 42 34 31 31 33 32 34 37 41 42 42 41 37 39 42 43 42 37 37 37 37 36 32 33 33 30 31 33 41 49 49
57 57 56 56 55 53 51 49 48 48 47 46 45 44 39 31 33 30 30 31 34 32 32 35 41 42 43 38 38 40 43 42 36 35 35 33 32 32 34 33 33 34 39 49 49
59 59 58 57 56 54 51 50 48 47 46 46 44 42 36 34 33 32 32 30 30 29 29 32 32 36 42 44 38 37 37 39 39 35 34 34 32 31 32 33 32 34 39 47 49
59 59 59 59 57 55 52 50 49 46 45 45 43 40 34 34 32 31 30 30 32 32 30 29 30 34 35 45 43 38 36 36 37 40 35 33 31 33 33 32 31 32 33 38 47
59 59 59 59 58 56 53 51 48 45 45 44 39 35 32 34 30 30 29 31 31 33 32 32 29 30 36 41 38 39 34 34 34 35 36 32 31 33 33 32 31 29 33 32 41
59 58 58 58 59 57 53 50 45 44 41 35 33 31 34 30 29 26 26 32 31 29 27 28 31 29 34 37 28 30 34 34 31 31 34 32 31 33 32 31 30 28 33 35 35
58 58 58 57 58 56 49 42 34 32 32 25 27 30 30 31 21 17 16 15 17 27 23 24 28 26 30 36 36 33 31 28 28 30 29 30 30 31 33 31 29 28 28 34 34
56 58 56 56 57 51 42 35 35 31 29 25 22 21 22 20 15 17 25 20 10 10 13 15 19 24 25 26 32 34 32 32 33 32 27 26 25 30 32 32 30 28 27 31 34
55 55 55 55 50 44 39 39 40 34 29 26 20 16 17 22 18 23 26 24 19 17 13 9 14 16 19 19 20 26 32 32 33 33 31 26 25 28 32 32 31 30 27 29 33
54 54 54 51 43 41 39 41 37 36 26 22 14 22 25 27 25 26 26 26 25 21 20 19 17 12 9 10 19 20 23 27 29 30 28 31 27 31 32 32 30 30 27 25 33
54 54 54 46 42 38 40 40 39 37 17 13 20 27 25 22 13 17 21 18 21 19 14 15 16 18 18 9 11 17 21 23 26 28 29 29 30 33 31 31 28 30 28 25 26
53 53 46 42 41 40 41 37 38 25 17 8 24 25 22 11 8 8 6 19 15 11 15 16 17 16 15 18 20 17 15 20 25 27 26 27 29 29 29 28 28 28 29 25 23
53 51 43 41 37 40 38 36 24 19 16 16 9 14 8 6 5 6 8 8 11 11 11 11 9 11 16 15 16 20 25 20 18 21 23 29 28 29 28 27 27 27 27 27 25
52 45 43 41 41 38 37 30 19 24 21 24 12 8 7 8 8 11 11 10 9 5 5 7 8 9 11 11 20 19 21 23 13 16 17 20 25 28 33 32 27 28 28 28 26
43 42 41 42 40 38 34 23 24 23 28 19 12 9 8 10 16 14 13 9 8 12 9 16 13 14 15 14 22 24 18 24 22 22 24 28 29 31 28 28 28 26 27 27 27
41 38 39 41 41 38 30 26 26 29 28 21 13 11 9 10 11 13 15 11 11 14 25 21 16 15 14 17 22 25 21 21 23 17 16 19 24 25 27 27 26 25 24 27 26
38 32 39 42 40 32 24 26 24 28 29 23 14 14 10 11 12 12 14 17 19 21 20 27 23 17 20 17 22 26 20 23 30 23 15 17 20 23 27 27 27 26 27 26 27
37 28 40 40 28 30 26 28 26 27 31 26 17 15 13 10 11 14 15 16 18 21 17 21 22 17 19 19 24 29 30 30 24 20 25 24 22 24 27 26 27 27 29 28 30
32 31 39 37 24 26 28 27 25 26 26 26 17 15 13 11 12 18 17 17 20 22 20 19 18 14 7 21 20 25 26 26 28 28 21 21 19 31 32 29 29 29 29 31 29
32 26 30 31 32 29 27 26 24 25 27 28 24 18 16 15 14 18 20 18 17 18 17 24 21 14 8 11 21 20 20 22 27 22 23 23 23 25 33 31 27 27 28 30 30
34 30 29 24 26 28 28 28 25 24 28 30 26 23 17 15 15 17 17 13 17 18 21 19 13 13 14 11 9 11 17 21 24 23 22 24 25 23 28 29 36 27 27 28 29
33 31 33 30 29 28 27 25 25 27 25 23 24 18 17 17 19 16 13 12 13 16 19 21 17 15 13 9 3 7 8 13 25 24 24 26 28 30 32 36 32 26 25 26 26
37 36 33 30 29 28 25 23 24 29 29 23 25 22 17 16 16 16 15 16 16 17 17 19 17 14 8 5 7 7 16 17 12 22 26 25 29 33 32 34 37 27 25 24 26
Wind_Speed
21 22 22 22 21 21 20 20 19 19 19 20 21 22 23 25 30 27 25 19 23 25 22 24 24 18 17 22 23 23 24 27 31 26 26 21 20 8 11 17 19 18 17 3 27
24 24 24 24 23 23 23 22 21 20 20 21 21 22 23 25 30 32 24 8 10 12 20 23 25 21 18 19 16 26 24 32 23 22 25 23 22 10 14 17 17 15 14 30 26
27 27 26 25 25 25 23 23 23 21 20 21 22 22 23 25 25 1 15 13 14 17 19 24 21 26 29 25 26 28 38 21 23 28 28 26 22 11 15 16 15 19 23 24 22
30 30 29 28 27 27 25 24 24 22 21 20 19 20 21 18 9 13 9 27 17 10 5 16 19 24 28 32 24 28 33 29 27 28 27 22 21 19 14 19 14 18 31 28 27
32 33 32 33 31 29 27 26 25 23 21 20 19 18 18 15 24 28 30 17 10 6 5 9 19 22 31 26 23 33 31 28 29 28 27 24 29 19 24 19 18 19 14 34 30
35 35 35 34 33 31 29 26 26 23 21 20 18 17 17 32 15 15 11 11 7 9 15 10 7 12 20 29 32 16 30 31 29 31 26 28 28 23 23 22 13 15 8 30 30
36 37 37 35 34 33 30 27 24 22 21 20 19 16 20 37 15 25 29 27 25 21 22 19 14 10 13 17 31 26 34 31 32 34 31 22 32 35 23 22 20 19 16 24 25
35 35 36 35 36 34 29 25 21 18 21 20 18 17 20 17 16 19 19 20 16 18 20 20 12 8 9 14 11 20 31 34 40 29 30 28 45 28 24 25 26 22 19 21 27
36 35 36 33 37 32 26 20 17 17 22 20 18 15 15 6 7 7 8 9 10 10 13 14 13 8 9 20 21 15 27 37 34 33 27 27 37 29 23 31 30 26 21 23 22
34 34 33 29 32 31 19 10 9 16 13 16 15 7 12 13 5 0 10 9 8 12 11 14 11 11 14 22 37 30 26 25 31 26 27 33 37 22 24 26 27 31 26 23 26
32 32 32 32 30 17 12 3 5 5 10 11 12 11 21 12 16 23 17 18 18 13 13 10 18 30 35 26 28 25 24 29 27 26 24 39 42 31 27 30 29 28 30 26 25
33 28 30 30 29 21 13 8 7 5 7 19 28 28 27 21 15 17 10 8 16 21 18 18 32 25 21 22 28 27 31 38 30 28 25 33 37 35 31 35 34 27 29 33 29
30 29 32 32 24 14 13 12 9 4 2 12 15 11 10 10 9 11 6 7 8 11 13 22 16 19 24 24 27 31 33 36 32 24 31 26 40 27 27 33 30 34 26 27 28
31 30 34 27 11 12 10 13 7 3 3 5 6 6 5 4 5 14 12 6 4 5 10 15 16 20 25 27 25 31 34 32 30 25 28 20 40 30 29 33 31 28 33 28 27
32 28 22 19 23 11 14 13 8 2 7 7 7 8 7 6 10 7 10 14 14 15 12 15 22 23 23 29 23 35 22 28 30 32 32 39 21 16 28 34 30 36 34 33 26
26 21 28 13 6 20 19 14 6 4 5 3 4 5 6 8 8 9 10 13 15 22 20 29 25 25 25 25 26 25 29 31 31 32 38 42 36 21 29 32 38 28 37 35 30
22 14 10 6 14 19 17 8 4 4 3 1 2 4 6 11 15 13 10 12 10 15 18 21 26 27 28 32 32 28 19 22 23 28 32 26 34 38 26 29 32 37 32 32 31
15 26 10 14 22 20 8 5 3 5 2 6 4 9 9 15 7 8 9 15 14 15 20 21 31 17 21 31 27 32 29 20 24 29 37 37 18 37 35 36 31 37 40 36 34
25 16 8 16 19 11 1 3 1 2 3 2 7 9 11 3 2 5 8 14 10 3 9 7 16 23 33 28 13 30 36 29 34 34 20 5 11 17 32 45 42 21 16 35 39
7 6 6 15 11 3 2 2 3 5 4 3 4 3 4 4 4 4 5 10 12 14 6 6 16 15 26 21 17 34 20 23 20 30 38 23 27 25 20 38 39 44 35 20 28
9 7 8 13 3 2 4 5 4 9 8 6 6 8 9 6 10 8 7 13 7 8 8 6 7 17 22 7 12 9 24 21 6 17 29 15 16 37 36 32 41 43 39 37 27
4 4 10 7 4 4 8 5 5 10 8 9 8 13 15 9 10 8 10 13 12 7 9 6 5 11 27 34 14 14 3 3 25 17 6 5 30 32 28 39 37 41 37 36 19
4 4 5 2 6 10 4 5 9 10 11 8 11 13 7 11 6 9 12 15 9 1 1 4 4 12 21 6 18 8 11 11 11 4 16 16 30 18 21 23 27 30 22 25 23
6 5 4 5 7 7 14 11 11 14 7 11 6 12 14 16 15 7 4 3 2 6 10 3 4 4 14 16 13 18 21 17 8 4 11 35 33 30 37 36 6 15 20 22 26
6 8 8 9 16 23 9 4 15 8 11 11 5 19 17 11 14 20 15 13 3 11 2 2 6 15 17 20 23 24 26 19 14 11 12 17 31 22 31 30 45 7 16 19 18
8 6 6 7 11 18 25 14 14 12 13 10 17 15 21 24 18 10 15 15 15 7 4 4 5 17 23 22 16 23 26 21 22 20 18 26 36 16 21 12 27 11 7 14 16
3 2 4 6 5 9 11 22 19 15 15 19 19 22 20 20 18 14 8 9 12 9 10 7 4 6 11 13 21 18 10 15 18 10 9 21 23 27 24 5 18 7 11 9 13
Wind_Direction
307 303 302 301 303 307 307 308 311 316 319 320 322 323 324 322 313 297 278 263 273 267 246 259 267 259 258 232 224 213 234 241 240 246 262 268 271 279 276 249 242 243 222 190 149
291 292 291 291 292 296 300 300 303 306 312 317 319 324 327 324 306 286 259 338 339 304 270 244 240 246 249 221 219 220 219 234 245 246 253 268 271 270 258 236 235 246 98 125 145
282 284 284 285 284 283 287 288 292 298 305 314 318 325 326 323 310 22 112 20 344 313 234 230 232 229 237 232 214 225 233 234 238 246 265 276 293 245 242 259 219 240 137 142 161
280 278 276 275 275 274 277 281 286 291 297 306 311 320 325 311 297 132 318 332 328 321 214 225 248 259 248 233 234 236 236 238 244 261 273 273 272 281 258 256 267 232 160 160 173
279 275 269 267 265 265 267 274 278 282 289 300 306 315 320 291 257 276 300 305 309 330 300 268 243 239 245 249 243 247 246 239 239 244 251 266 267 255 265 266 259 267 168 166 177
276 273 269 262 261 261 260 260 268 277 284 292 300 308 296 273 265 275 298 307 268 319 303 282 268 297 285 254 235 237 244 249 248 250 248 248 256 259 240 257 243 271 216 173 179
280 277 270 260 253 254 254 255 259 269 280 288 295 292 275 259 280 294 298 290 286 288 280 271 263 268 325 261 248 250 260 268 254 241 243 249 259 236 243 242 246 243 192 181 188
286 286 284 269 255 246 246 252 257 265 278 285 287 286 267 272 268 266 276 281 264 254 247 255 257 277 248 278 284 246 231 246 248 243 247 220 248 243 229 238 242 240 225 200 189
291 292 291 291 260 245 232 242 249 263 273 280 279 237 269 268 232 259 276 275 254 283 250 243 219 229 274 246 254 244 232 227 243 232 240 224 243 240 240 223 234 234 221 204 197
295 296 296 295 287 248 214 225 255 275 274 253 226 267 249 252 249 199 300 291 276 285 281 233 206 219 208 219 223 228 228 242 250 233 232 240 245 235 231 241 234 227 221 228 201
303 300 294 298 284 217 141 154 248 247 208 207 193 234 296 235 316 300 282 266 262 258 261 262 209 220 221 219 245 267 264 255 253 244 246 228 244 243 228 227 236 228 228 218 228
304 308 307 298 300 145 135 159 120 93 291 264 261 264 273 278 282 279 233 226 220 242 245 251 246 243 253 246 243 249 255 262 274 273 253 252 253 234 232 226 226 232 223 222 219
309 308 304 311 131 120 123 115 101 123 257 278 240 249 250 193 227 268 218 196 250 258 244 237 253 289 258 251 243 249 244 255 258 281 283 270 269 253 225 234 213 232 230 226 207
306 305 310 128 102 118 111 130 122 156 12 189 199 212 168 217 239 238 252 279 264 286 309 262 262 258 267 269 249 252 244 261 264 264 260 264 265 250 228 245 214 227 228 230 207
307 310 286 150 135 154 143 129 151 185 292 124 126 137 141 236 337 108 226 224 258 288 289 255 292 297 285 258 272 269 267 255 261 259 257 260 260 259 214 226 225 219 225 227 208
306 331 123 102 60 120 126 138 164 99 231 159 120 199 222 239 257 271 246 223 253 273 262 271 279 278 275 277 279 277 267 275 248 254 256 252 241 254 222 219 226 221 222 216 219
299 147 128 110 127 129 135 141 76 202 158 167 304 205 265 287 292 301 298 282 270 299 286 293 283 277 256 259 264 264 252 253 256 236 245 226 237 235 227 220 224 219 221 214 208
96 121 93 109 125 141 145 80 216 171 116 332 292 294 274 293 316 352 313 289 273 273 280 277 293 271 258 254 229 240 232 237 221 236 247 244 243 235 228 248 226 212 218 214 206
99 78 97 127 136 157 70 158 286 150 125 261 301 266 289 193 193 324 297 287 290 305 273 305 271 315 302 286 260 248 234 240 248 264 272 259 239 260 220 229 251 249 215 204 204
91 61 79 120 128 141 92 273 217 117 131 241 221 272 256 293 321 351 293 286 330 344 18 304 285 278 284 304 274 215 216 234 220 234 253 250 236 246 215 217 218 238 244 234 196
48 62 99 114 97 53 221 225 195 167 165 195 236 241 249 244 245 267 255 296 353 337 343 282 273 293 308 266 263 251 222 239 260 215 236 279 274 234 225 216 213 222 229 223 213
90 77 152 146 151 207 226 202 188 183 193 239 268 266 260 261 283 253 238 251 300 352 335 17 297 291 284 273 333 290 212 256 242 237 225 223 264 277 283 229 210 212 216 206 198
83 113 121 328 231 215 233 241 208 185 198 195 232 224 246 252 255 256 256 263 281 277 289 330 292 317 329 61 8 347 322 358 305 231 249 250 255 334 283 219 208 202 205 189 180
138 157 172 212 274 274 238 234 220 214 210 213 268 260 260 258 253 258 277 287 269 334 317 341 266 235 265 275 268 292 287 294 289 269 328 238 260 269 284 304 300 188 190 186 183
152 219 186 191 233 233 246 248 224 209 211 204 231 231 242 241 255 261 254 274 269 294 104 78 268 283 277 291 281 272 262 267 264 258 257 313 278 268 259 284 293 250 169 173 163
198 205 182 250 227 216 224 233 225 212 184 208 223 231 214 239 230 285 297 285 271 267 171 174 269 313 292 290 310 321 287 266 242 253 262 268 282 259 261 243 264 180 141 157 168
177 119 151 198 207 204 210 219 227 225 216 228 217 237 245 231 233 263 316 321 298 264 250 238 271 311 274 316 319 302 293 302 235 221 290 281 310 323 318 290 326 284 139 156 173